(130610) = 2000 SK22 = 2004 VS21

Discovered at Haleakala on 2000-09-20 by NEAT.

Orbit

Orbit type: Main Belt

Note: WebGL enabled browser required.

epoch2023-09-13.0
epoch JD2460200.5
perihelion date2023-08-06.67029
perihelion JD2460163.17029
argument of perihelion (°)326.79561
ascending node (°)80.58557
inclination (°)2.45463
eccentricity0.1728951
perihelion distance (AU)1.9979788
Tisserand w.r.t. Jupiter3.5
ΔV w.r.t. Earth (km/sec)8.9
semimajor axis (AU)2.4156294
mean anomaly (°)9.79971
mean daily motion (°/day)0.26251760
aphelion distance (AU)2.833
period (years)3.75
P-vector [x]0.67662191
P-vector [y]0.68455680
P-vector [z]0.27122828
Q-vector [x]-0.73511741
Q-vector [y]0.60687353
Q-vector [z]0.30217034
absolute magnitude16.82
phase slope0.15
uncertainty0
referenceMPEC 2024-B173
observations used618
oppositions15
arc length (days)8532
first opposition used2000
last opposition used2024
residual rms (arc-secs)0.78
perturbers coarse indicatorM-v
perturbers precise indicator003Ek
first observation date used2000-09-20.0
last observation date used2024-01-30.0
computer nameMPCLINUX
JD of orbit computation2456847.626685
perihelion JD uncertainty (days)7.2258E-05
argument of perihelion uncertainty (°)1.0300E-04
ascending node uncertainty (°)1.0197E-04
inclination uncertainty (°)4.0220E-06
eccentricity uncertainty 4.6296E-08
perihelion distance uncertainty (AU)1.0682E-07
Minimum Orbit Intersection Distances (in AU)
for orbit epoch: 2460200.5, reference: E2024-BH3
Mercury1.67986
Venus1.27513
Earth1.00738
Mars0.49904
Jupiter2.54168
Saturn6.83688
Uranus15.787
Neptune27.7559

Observations

634 total observations over interval: 2000 09 20.51817 – 2024 01 30.185543
These data are available for download (format description).

Date (UT) J2000 RA J2000 Dec Magn Location Ref
2000 09 20.51817 00 26 29.39 -02 09 36.1 19.6   608 – Haleakala-AMOS MPS 19766
2000 09 20.52946 00 26 28.80 -02 09 40.2 19.5   608 – Haleakala-AMOS MPS 19766
2000 09 20.54041 00 26 28.22 -02 09 43.7 19.4   608 – Haleakala-AMOS MPS 19766
2000 09 23.34378 00 24 04.79 -02 25 20.8 18.6 R 699 – Lowell Observatory-LONEOS MPS 30123
2000 09 23.35922 00 24 03.97 -02 25 26.1   699 – Lowell Observatory-LONEOS MPS 30123
2000 09 23.37470 00 24 03.04 -02 25 30.4   699 – Lowell Observatory-LONEOS MPS 30123
2000 09 23.39009 00 24 02.29 -02 25 36.3   699 – Lowell Observatory-LONEOS MPS 30123
2000 09 24.28215 00 23 15.85 -02 30 32.1 19.6   704 – Lincoln Laboratory ETS, New Mexico MPS 19766
2000 09 24.29164 00 23 15.40 -02 30 36.3 18.5 R 699 – Lowell Observatory-LONEOS MPS 30123
2000 09 24.29731 00 23 15.00 -02 30 37.0 18.9   704 – Lincoln Laboratory ETS, New Mexico MPS 19766
2000 09 24.31206 00 23 14.22 -02 30 40.4 19.2   704 – Lincoln Laboratory ETS, New Mexico MPS 19766
2000 09 24.31484 00 23 14.06 -02 30 43.0   699 – Lowell Observatory-LONEOS MPS 30123
2000 09 24.32663 00 23 13.35 -02 30 46.5 19.3   704 – Lincoln Laboratory ETS, New Mexico MPS 19766
2000 09 24.33809 00 23 12.78 -02 30 51.0   699 – Lowell Observatory-LONEOS MPS 30123
2000 09 24.36128 00 23 11.54 -02 30 57.5   699 – Lowell Observatory-LONEOS MPS 30123
2000 09 25.36880 00 22 18.34 -02 36 31.6 19.4   704 – Lincoln Laboratory ETS, New Mexico MPS 19766
2000 09 25.38399 00 22 17.55 -02 36 36.7 19.3   704 – Lincoln Laboratory ETS, New Mexico MPS 19766
2000 09 25.39840 00 22 17.02 -02 36 41.1 19.8   608 – Haleakala-AMOS MPS 19766
2000 09 25.39914 00 22 16.67 -02 36 41.3 19.3   704 – Lincoln Laboratory ETS, New Mexico MPS 19766
2000 09 25.40874 00 22 16.42 -02 36 44.4 19.5   608 – Haleakala-AMOS MPS 19766
2000 09 25.41957 00 22 15.85 -02 36 47.8 19.7   608 – Haleakala-AMOS MPS 19766
2000 10 01.32168 00 17 00.66 -03 08 09.4 18.3 R 699 – Lowell Observatory-LONEOS MPS 21153
2000 10 01.34167 00 16 59.70 -03 08 15.7   699 – Lowell Observatory-LONEOS MPS 21153
2000 10 01.36170 00 16 58.54 -03 08 21.7   699 – Lowell Observatory-LONEOS MPS 21153
2000 10 01.38171 00 16 57.39 -03 08 27.5   699 – Lowell Observatory-LONEOS MPS 21153
2000 10 02.26901 00 16 10.41 -03 12 54.4 18.8   704 – Lincoln Laboratory ETS, New Mexico MPS 19766
2000 10 02.28449 00 16 09.56 -03 12 59.4 19.1   704 – Lincoln Laboratory ETS, New Mexico MPS 19766
2000 10 02.29912 00 16 08.80 -03 13 03.8 19.3   704 – Lincoln Laboratory ETS, New Mexico MPS 19766
2000 10 02.31397 00 16 07.89 -03 13 07.7 19.0   704 – Lincoln Laboratory ETS, New Mexico MPS 19766
2000 10 02.33075 00 16 06.95 -03 13 12.9 19.1   704 – Lincoln Laboratory ETS, New Mexico MPS 19766
2002 03 21.23819 11 34 34.47 +07 01 27.4 19.9   704 – Lincoln Laboratory ETS, New Mexico MPS 120360
2002 03 21.24984 11 34 33.80 +07 01 30.3 20.2   704 – Lincoln Laboratory ETS, New Mexico MPS 120360
2002 03 21.26265 11 34 33.13 +07 01 37.8 19.9   704 – Lincoln Laboratory ETS, New Mexico MPS 120360
2002 03 21.28720 11 34 31.71 +07 01 43.2 20.2   704 – Lincoln Laboratory ETS, New Mexico MPS 120360
2004 10 15.42228 04 02 40.96 +18 02 08.1 19.4 V 691 – Steward Observatory, Kitt Peak-Spacewatch MPS 120627
2004 10 15.44900 04 02 40.57 +18 02 07.8 19.6 V 691 – Steward Observatory, Kitt Peak-Spacewatch MPS 120627
2004 10 15.47597 04 02 40.16 +18 02 07.5 19.6 V 691 – Steward Observatory, Kitt Peak-Spacewatch MPS 120627
2004 10 24.29425 03 59 27.09 +17 58 13.6 18.6 R 699 – Lowell Observatory-LONEOS MPS 120627
2004 10 24.30645 03 59 26.70 +17 58 12.3   699 – Lowell Observatory-LONEOS MPS 120627
2004 10 24.31866 03 59 26.26 +17 58 13.1   699 – Lowell Observatory-LONEOS MPS 120627
2004 10 24.33087 03 59 25.85 +17 58 11.5   699 – Lowell Observatory-LONEOS MPS 120627
2004 11 04.39922 03 51 43.44 +17 46 22.0 18.1 R 703 – Catalina Sky Survey MPS 119366
2004 11 04.41050 03 51 42.96 +17 46 21.5 18.1 R 703 – Catalina Sky Survey MPS 119366
2004 11 04.42176 03 51 42.25 +17 46 19.8 18.6 R 703 – Catalina Sky Survey MPS 119366
2004 11 04.43302 03 51 41.66 +17 46 18.8 18.7 R 703 – Catalina Sky Survey MPS 119366
2004 11 07.25492 03 49 13.24 +17 42 18.7 18.9   704 – Lincoln Laboratory ETS, New Mexico MPS 119366
2004 11 07.27891 03 49 11.83 +17 42 16.9 19.1   704 – Lincoln Laboratory ETS, New Mexico MPS 119366
2004 11 07.29091 03 49 11.16 +17 42 16.0 18.9   704 – Lincoln Laboratory ETS, New Mexico MPS 119366
2004 11 07.30306 03 49 10.49 +17 42 14.6 19.0   704 – Lincoln Laboratory ETS, New Mexico MPS 119366
2004 11 10.14446 03 46 31.62 +17 37 54.0 19.1 V 691 – Steward Observatory, Kitt Peak-Spacewatch MPS 119366
2004 11 10.17244 03 46 29.97 +17 37 51.8 18.8 V 691 – Steward Observatory, Kitt Peak-Spacewatch MPS 119366
2004 11 10.20012 03 46 28.32 +17 37 49.5 18.9 V 691 – Steward Observatory, Kitt Peak-Spacewatch MPS 119366
2004 11 18.25767 03 38 27.07 +17 24 51.1 18.4   704 – Lincoln Laboratory ETS, New Mexico MPS 119905
2004 11 18.26989 03 38 26.30 +17 24 47.0 18.5   704 – Lincoln Laboratory ETS, New Mexico MPS 119905
2004 11 18.28213 03 38 25.53 +17 24 47.5 18.7   704 – Lincoln Laboratory ETS, New Mexico MPS 119905
2004 11 18.29443 03 38 24.70 +17 24 46.7 18.7   704 – Lincoln Laboratory ETS, New Mexico MPS 119905
2004 11 19.28943 03 37 24.40 +17 23 10.8 17.8 R 703 – Catalina Sky Survey MPS 119905
2004 11 19.29774 03 37 23.89 +17 23 09.6 17.7 R 703 – Catalina Sky Survey MPS 119905
2004 11 19.30603 03 37 23.31 +17 23 09.2 17.8 R 703 – Catalina Sky Survey MPS 119905
2004 11 19.31431 03 37 22.78 +17 23 08.4 17.6 R 703 – Catalina Sky Survey MPS 119905
2004 11 20.27486 03 36 24.81 +17 21 37.3 18.7 V 691 – Steward Observatory, Kitt Peak-Spacewatch MPS 120627
2004 11 20.28711 03 36 24.04 +17 21 36.1 18.5 V 691 – Steward Observatory, Kitt Peak-Spacewatch MPS 120627
2004 11 20.31875 03 36 22.03 +17 21 33.2 18.5 V 691 – Steward Observatory, Kitt Peak-Spacewatch MPS 120627
2004 11 30.23987 03 26 53.31 +17 07 54.0 18.6 R 699 – Lowell Observatory-LONEOS MPS 127101
2004 11 30.26918 03 26 51.73 +17 07 53.2   699 – Lowell Observatory-LONEOS MPS 127101
2004 11 30.29847 03 26 50.08 +17 07 50.0   699 – Lowell Observatory-LONEOS MPS 127101
2004 11 30.32774 03 26 48.44 +17 07 48.6   699 – Lowell Observatory-LONEOS MPS 127101
2004 12 02.37457 03 25 03.22 +17 05 43.2 18.5 R G92 – Jarnac Observatory, Vail MPS 120627
2004 12 02.39917 03 25 01.93 +17 05 41.4 18.9 R G92 – Jarnac Observatory, Vail MPS 120627
2004 12 02.42372 03 25 00.68 +17 05 38.8 18.1 R G92 – Jarnac Observatory, Vail MPS 120627
2004 12 14.20665 03 17 08.88 +17 01 12.2 18.8 R 703 – Catalina Sky Survey MPS 121603
2004 12 14.20879 03 17 08.70 +17 01 14.1 18.8 C 704 – Lincoln Laboratory ETS, New Mexico MPS 294177
2004 12 14.21300 03 17 08.76 +17 01 13.3 18.7 R 703 – Catalina Sky Survey MPS 121603
2004 12 14.21933 03 17 08.55 +17 01 13.3 18.8 R 703 – Catalina Sky Survey MPS 121603
2004 12 14.22179 03 17 08.36 +17 01 12.9 19.1 C 704 – Lincoln Laboratory ETS, New Mexico MPS 294177
2004 12 14.22567 03 17 08.30 +17 01 13.2 19.3 R 703 – Catalina Sky Survey MPS 121603
2004 12 14.23489 03 17 07.93 +17 01 12.5 18.9 C 704 – Lincoln Laboratory ETS, New Mexico MPS 294177
2004 12 14.24792 03 17 07.49 +17 01 13.5 18.9 C 704 – Lincoln Laboratory ETS, New Mexico MPS 294177
2004 12 16.19069 03 16 15.65 +17 01 59.4 19.4   704 – Lincoln Laboratory ETS, New Mexico MPS 121603
2004 12 16.20358 03 16 15.28 +17 01 58.6 19.7   704 – Lincoln Laboratory ETS, New Mexico MPS 121603
2004 12 16.21656 03 16 14.92 +17 01 59.1 19.7   704 – Lincoln Laboratory ETS, New Mexico MPS 121603
2004 12 16.24250 03 16 14.25 +17 01 58.7 19.9   704 – Lincoln Laboratory ETS, New Mexico MPS 121603
2005 03 11.13255 04 30 37.84 +22 33 44.2 20.1 R G96 – Mt. Lemmon Survey MPS 127784
2005 03 11.13918 04 30 38.56 +22 33 44.1 20.8 R G96 – Mt. Lemmon Survey MPS 127784
2005 03 11.14582 04 30 39.19 +22 33 45.8 21.5 R G96 – Mt. Lemmon Survey MPS 127784
2005 03 11.15242 04 30 39.92 +22 33 47.9 21.2 R G96 – Mt. Lemmon Survey MPS 127784
2006 03 23.24997 13 20 42.49 -04 45 19.1 21.0 V 691 – Steward Observatory, Kitt Peak-Spacewatch MPS 166917
2006 03 23.26727 13 20 41.63 -04 45 13.2 21.0 V 691 – Steward Observatory, Kitt Peak-Spacewatch MPS 166917
